{"data":{"norad_id":53412,"epoch":"2026-09-20T04:00:03.000096Z","epoch_age_seconds":104239,"freshness":"FRESH","line1":"1 53412U 22097AA  26263.16670139  .00093941  00000+0  31445-2 0  9991","line2":"2 53412  53.1608 318.8475 0000820  65.4293 316.2655 15.30194574  5737","mean_motion":15.30194574,"eccentricity":8.2e-5,"inclination_deg":53.1608,"raan_deg":318.8475,"arg_perigee_deg":65.4293,"mean_anomaly_deg":316.2655,"bstar":0.0031445,"rev_number":573,"period_min":94.105679399697,"perigee_km":474.66929432697,"apogee_km":475.79324672334,"semimajor_km":6853.3682705252,"source":"CELESTRAK","updated_at":"2026-09-20T09:00:40.227759Z"}}